When you browse on this site, cookies collect data to enhance your experience and personalize the content and advertising you see.
Visit our Privacy Policy to learn more. By continuing to use the site, you agree to this use of cookies and data.
  • Em Portugal
  • Lista de países
  • Para 7 dias
  • Temperatura da água
  • Mapa do tempo
  • Widgets de tempo
  • user-avatar
    Iniciar Sessão

    Previsão horária em Albani

    Hoje, 4 Junho, Quinta-feira

    Tempo Temperatura Precipitação Vento Pressão Humidade
    00:00 +13°C° 0 mm 2 m/s 763 mmHg 71%
    01:00 +13°C° 0 mm 2 m/s 763 mmHg 72%
    02:00 +12°C° 0 mm 2 m/s 762 mmHg 76%
    03:00 +12°C° 0 mm 2 m/s 763 mmHg 76%
    04:00 +12°C° 0 mm 2 m/s 763 mmHg 76%
    05:00 +12°C° 0 mm 2 m/s 763 mmHg 77%
    06:00 +12°C° 0 mm 2 m/s 763 mmHg 77%
    07:00 +12°C° 0 mm 2 m/s 763 mmHg 76%
    08:00 +12°C° 0 mm 2 m/s 764 mmHg 76%
    09:00 +15°C° 0 mm 1 m/s 764 mmHg 72%
    10:00 +18°C° 0 mm 1 m/s 764 mmHg 67%
    11:00 +20°C° 0 mm 1 m/s 764 mmHg 62%
    12:00 +21°C° 0 mm 1 m/s 764 mmHg 63%
    13:00 +20°C° 0 mm 2 m/s 763 mmHg 63%
    14:00 +20°C° 0 mm 2 m/s 763 mmHg 64%
    15:00 +19°C° 0 mm 2 m/s 763 mmHg 71%
    16:00 +18°C° 0 mm 2 m/s 764 mmHg 77%
    17:00 +16°C° 0 mm 3 m/s 764 mmHg 84%
    18:00 +16°C° 0 mm 3 m/s 764 mmHg 86%
    19:00 +14°C° 0 mm 3 m/s 765 mmHg 88%
    20:00 +14°C° 0 mm 3 m/s 765 mmHg 90%
    21:00 +15°C° 0 mm 2 m/s 765 mmHg 89%
    22:00 +15°C° 0 mm 2 m/s 765 mmHg 88%
    23:00 +15°C° 0 mm 2 m/s 766 mmHg 87%

    Amanhã, 5 Junho, Sexta-feira

    Tempo Temperatura Precipitação Vento Pressão Humidade
    00:00 +15°C° 0 mm 2 m/s 765 mmHg 86%
    01:00 +15°C° 0 mm 1 m/s 765 mmHg 86%
    02:00 +15°C° 0 mm 1 m/s 765 mmHg 86%
    03:00 +14°C° 0 mm 1 m/s 765 mmHg 86%
    04:00 +14°C° 0 mm 1 m/s 766 mmHg 86%
    05:00 +14°C° 0 mm 1 m/s 766 mmHg 86%
    06:00 +14°C° 0 mm 1 m/s 766 mmHg 85%
    07:00 +15°C° 0 mm 1 m/s 766 mmHg 84%
    08:00 +15°C° 0 mm 1 m/s 766 mmHg 83%
    09:00 +16°C° 0 mm 2 m/s 766 mmHg 77%
    10:00 +17°C° 0 mm 2 m/s 767 mmHg 72%
    11:00 +19°C° 0 mm 3 m/s 767 mmHg 66%
    12:00 +19°C° 0 mm 3 m/s 766 mmHg 67%
    13:00 +19°C° 0 mm 3 m/s 766 mmHg 67%
    14:00 +19°C° 0 mm 3 m/s 765 mmHg 68%
    15:00 +18°C° 0 mm 3 m/s 765 mmHg 71%
    16:00 +17°C° 0 mm 3 m/s 765 mmHg 74%
    17:00 +17°C° 0 mm 3 m/s 766 mmHg 77%
    18:00 +16°C° 0 mm 3 m/s 766 mmHg 80%
    19:00 +14°C° 0 mm 3 m/s 766 mmHg 84%
    20:00 +14°C° 0 mm 3 m/s 766 mmHg 88%
    21:00 +14°C° 0 mm 3 m/s 766 mmHg 88%
    22:00 +14°C° 0 mm 3 m/s 765 mmHg 89%
    23:00 +13°C° 0 mm 3 m/s 765 mmHg 89%

    Depois de amanhã, 6 Junho, Sábado

    Tempo Temperatura Precipitação Vento Pressão Humidade
    00:00 +13°C° 0 mm 3 m/s 765 mmHg 90%
    01:00 +13°C° 0 mm 3 m/s 765 mmHg 91%
    02:00 +14°C° 0 mm 2 m/s 764 mmHg 92%
    03:00 +13°C° 0 mm 3 m/s 764 mmHg 92%
    04:00 +13°C° 0 mm 3 m/s 764 mmHg 92%
    05:00 +13°C° 0 mm 3 m/s 764 mmHg 92%
    06:00 +13°C° 0 mm 3 m/s 764 mmHg 92%
    07:00 +13°C° 0 mm 3 m/s 764 mmHg 92%
    08:00 +13°C° 0 mm 3 m/s 764 mmHg 92%
    09:00 +16°C° 0.1 mm 3 m/s 764 mmHg 83%
    10:00 +17°C° 0.1 mm 4 m/s 764 mmHg 75%
    11:00 +19°C° 0.1 mm 4 m/s 764 mmHg 66%
    12:00 +20°C° 0 mm 4 m/s 763 mmHg 62%
    13:00 +20°C° 0 mm 3 m/s 762 mmHg 58%
    14:00 +21°C° 0 mm 3 m/s 761 mmHg 54%
    15:00 +20°C° 0 mm 3 m/s 761 mmHg 58%
    16:00 +19°C° 0 mm 2 m/s 761 mmHg 62%
    17:00 +18°C° 0 mm 2 m/s 761 mmHg 65%
    18:00 +17°C° 0 mm 2 m/s 761 mmHg 65%
    19:00 +16°C° 0 mm 2 m/s 761 mmHg 65%
    20:00 +16°C° 0 mm 2 m/s 761 mmHg 66%
    21:00 +16°C° 0 mm 2 m/s 761 mmHg 63%
    22:00 +16°C° 0 mm 2 m/s 761 mmHg 61%
    23:00 +17°C° 0 mm 2 m/s 761 mmHg 58%

    7 Junho, Domingo

    Tempo Temperatura Precipitação Vento Pressão Humidade
    00:00 +17°C° 0.1 mm 2 m/s 761 mmHg 63%
    01:00 +16°C° 0.1 mm 2 m/s 761 mmHg 67%
    02:00 +16°C° 0.1 mm 3 m/s 761 mmHg 72%
    03:00 +16°C° 0 mm 2 m/s 761 mmHg 72%
    04:00 +17°C° 0 mm 2 m/s 761 mmHg 71%
    05:00 +17°C° 0 mm 2 m/s 761 mmHg 71%
    06:00 +17°C° 0 mm 2 m/s 761 mmHg 71%
    07:00 +16°C° 0 mm 3 m/s 761 mmHg 70%
    08:00 +16°C° 0 mm 3 m/s 761 mmHg 70%
    09:00 +17°C° 0 mm 3 m/s 761 mmHg 67%
    10:00 +18°C° 0 mm 3 m/s 762 mmHg 64%
    11:00 +18°C° 0 mm 3 m/s 762 mmHg 60%
    12:00 +19°C° 0 mm 3 m/s 761 mmHg 58%
    13:00 +20°C° 0 mm 3 m/s 761 mmHg 55%
    14:00 +21°C° 0 mm 3 m/s 760 mmHg 53%
    15:00 +20°C° 0 mm 3 m/s 760 mmHg 56%
    16:00 +19°C° 0 mm 2 m/s 761 mmHg 59%
    17:00 +18°C° 0 mm 1 m/s 761 mmHg 62%
    18:00 +18°C° 0 mm 1 m/s 761 mmHg 65%
    19:00 +16°C° 0 mm 2 m/s 762 mmHg 67%
    20:00 +16°C° 0 mm 2 m/s 762 mmHg 70%
    21:00 +15°C° 0 mm 2 m/s 762 mmHg 70%
    22:00 +15°C° 0 mm 2 m/s 762 mmHg 70%
    23:00 +13°C° 0 mm 3 m/s 762 mmHg 70%

    8 Junho, Segunda-feira

    Tempo Temperatura Precipitação Vento Pressão Humidade
    00:00 +13°C° 0 mm 3 m/s 762 mmHg 69%
    01:00 +13°C° 0 mm 3 m/s 762 mmHg 68%
    02:00 +13°C° 0 mm 3 m/s 762 mmHg 66%
    03:00 +12°C° 0 mm 3 m/s 762 mmHg 65%
    04:00 +12°C° 0 mm 3 m/s 762 mmHg 64%
    05:00 +12°C° 0 mm 3 m/s 762 mmHg 63%
    06:00 +12°C° 0 mm 3 m/s 762 mmHg 63%
    07:00 +12°C° 0 mm 3 m/s 762 mmHg 64%
    08:00 +12°C° 0 mm 4 m/s 762 mmHg 64%
    09:00 +14°C° 0 mm 4 m/s 762 mmHg 60%
    10:00 +17°C° 0 mm 4 m/s 762 mmHg 56%
    11:00 +20°C° 0 mm 4 m/s 762 mmHg 52%
    12:00 +20°C° 0 mm 4 m/s 761 mmHg 52%
    13:00 +21°C° 0 mm 4 m/s 761 mmHg 52%
    14:00 +22°C° 0 mm 3 m/s 760 mmHg 52%
    15:00 +21°C° 0 mm 3 m/s 761 mmHg 58%
    16:00 +19°C° 0 mm 2 m/s 761 mmHg 65%
    17:00 +18°C° 0 mm 2 m/s 761 mmHg 71%
    18:00 +18°C° 0 mm 1 m/s 761 mmHg 74%
    19:00 +16°C° 0 mm 1 m/s 761 mmHg 77%
    20:00 +15°C° 0 mm 1 m/s 762 mmHg 79%
    21:00 +15°C° 0 mm 2 m/s 761 mmHg 78%
    22:00 +15°C° 0 mm 2 m/s 761 mmHg 78%
    23:00 +13°C° 0 mm 3 m/s 761 mmHg 77%

    9 Junho, Terça-feira

    Tempo Temperatura Precipitação Vento Pressão Humidade
    00:00 +13°C° 0 mm 3 m/s 761 mmHg 74%
    01:00 +13°C° 0 mm 3 m/s 761 mmHg 72%
    02:00 +13°C° 0 mm 4 m/s 761 mmHg 69%
    03:00 +13°C° 0 mm 4 m/s 760 mmHg 66%
    04:00 +13°C° 0 mm 4 m/s 760 mmHg 62%
    05:00 +13°C° 0 mm 5 m/s 759 mmHg 58%
    06:00 +13°C° 0 mm 5 m/s 760 mmHg 58%
    07:00 +13°C° 0 mm 5 m/s 760 mmHg 57%
    08:00 +14°C° 0 mm 6 m/s 760 mmHg 57%
    09:00 +15°C° 0 mm 6 m/s 760 mmHg 53%
    10:00 +17°C° 0 mm 6 m/s 760 mmHg 50%
    11:00 +20°C° 0 mm 7 m/s 759 mmHg 46%
    12:00 +20°C° 0 mm 6 m/s 759 mmHg 45%
    13:00 +21°C° 0 mm 6 m/s 758 mmHg 45%
    14:00 +21°C° 0 mm 6 m/s 757 mmHg 44%
    15:00 +20°C° 0 mm 5 m/s 757 mmHg 47%
    16:00 +19°C° 0 mm 5 m/s 757 mmHg 50%
    17:00 +17°C° 0 mm 5 m/s 757 mmHg 53%
    18:00 +17°C° 0 mm 5 m/s 757 mmHg 55%
    19:00 +16°C° 0 mm 5 m/s 757 mmHg 56%
    20:00 +15°C° 0 mm 5 m/s 758 mmHg 58%
    21:00 +15°C° 0 mm 5 m/s 757 mmHg 58%
    22:00 +15°C° 0 mm 5 m/s 757 mmHg 58%
    23:00 +15°C° 0 mm 5 m/s 757 mmHg 58%
    Mostrar mais